| time (UTC) | temp C | wind direction | speed KPH | gust KPH | rain 1hr cm | rain 24hr cm | rain mn cm | humidity % | barometer mb |
| 20260903142015 | 28 | 14 | 0.0 | 3.2 | 0.00 | 0.00 | 0.00 | 79 | 1017.4 |
| 20260903141512 | 28 | 347 | 0.0 | 3.2 | 0.00 | 0.00 | 0.00 | 78 | 1017.4 |
| 20260903141010 | 28 | 347 | 0.0 | 1.6 | 0.00 | 0.00 | 0.00 | 78 | 1017.4 |
| 20260903140514 | 28 | 240 | 0.0 | 3.2 | 0.00 | 0.00 | 0.00 | 80 | 1017.3 |
| 20260903140012 | 28 | 355 | 0.0 | 3.2 | 0.00 | 0.00 | 0.00 | 79 | 1017.4 |
| 20260903135510 | 28 | 311 | 0.0 | 0.0 | 0.00 | 0.00 | 0.00 | 79 | 1017.4 |
| 20260903135016 | 27 | 5 | 0.0 | 0.0 | 0.00 | 0.00 | 0.00 | 80 | 1017.4 |
| 20260903134511 | 27 | 344 | 0.0 | 0.0 | 0.00 | 0.00 | 0.00 | 81 | 1017.4 |
| 20260903134012 | 27 | 344 | 0.0 | 0.0 | 0.00 | 0.00 | 0.00 | 81 | 1017.4 |
| 20260903133504 | 27 | 355 | 0.0 | 0.0 | 0.00 | 0.00 | 0.00 | 82 | 1017.5 |
| 20260903133013 | 27 | 346 | 0.0 | 0.0 | 0.00 | 0.00 | 0.00 | 85 | 1017.4 |
| 20260903132517 | 26 | 69 | 0.0 | 0.0 | 0.00 | 0.00 | 0.00 | 85 | 1017.5 |
| 20260903132006 | 26 | 15 | 0.0 | 0.0 | 0.00 | 0.00 | 0.00 | 87 | 1017.6 |
| 20260903131516 | 26 | 20 | 0.0 | 0.0 | 0.00 | 0.00 | 0.00 | 88 | 1017.7 |
| 20260903131012 | 26 | 20 | 0.0 | 0.0 | 0.00 | 0.00 | 0.00 | 90 | 1017.7 |
| 20260903130503 | 25 | 41 | 0.0 | 0.0 | 0.00 | 0.00 | 0.00 | 90 | 1017.7 |
| 20260903130013 | 25 | 41 | 0.0 | 0.0 | 0.00 | 0.00 | 0.00 | 91 | 1017.9 |
| 20260903125515 | 25 | 34 | 0.0 | 0.0 | 0.00 | 0.00 | 0.00 | 92 | 1018.0 |
| 20260903125004 | 25 | 344 | 0.0 | 0.0 | 0.00 | 0.00 | 0.00 | 93 | 1018.0 |
| 20260903124514 | 24 | 344 | 0.0 | 0.0 | 0.00 | 0.00 | 0.00 | 94 | 1018.0 |
| 20260903124013 | 24 | 344 | 0.0 | 0.0 | 0.00 | 0.00 | 0.00 | 95 | 1018.0 |
| 20260903123511 | 23 | 344 | 0.0 | 0.0 | 0.00 | 0.00 | 0.00 | 95 | 1018.0 |
| 20260903123015 | 23 | 344 | 0.0 | 0.0 | 0.00 | 0.00 | 0.00 | 95 | 1017.9 |
| 20260903122517 | 23 | 344 | 0.0 | 0.0 | 0.00 | 0.00 | 0.00 | 96 | 1017.9 |
| 20260903122006 | 23 | 344 | 0.0 | 0.0 | 0.00 | 0.00 | 0.00 | 96 | 1017.9 |
| 20260903121526 | 23 | 344 | 0.0 | 0.0 | 0.00 | 0.00 | 0.00 | 96 | 1017.9 |
| 20260903121016 | 23 | 344 | 0.0 | 0.0 | 0.00 | 0.00 | 0.00 | 96 | 1017.9 |
| 20260903120506 | 23 | 344 | 0.0 | 0.0 | 0.00 | 0.00 | 0.00 | 96 | 1017.9 |
| 20260903120022 | 23 | 345 | 0.0 | 0.0 | 0.00 | 0.00 | 0.00 | 96 | 1017.9 |
| 20260903115516 | 22 | 344 | 0.0 | 0.0 | 0.00 | 0.00 | 0.00 | 96 | 1017.9 |
| 20260903115007 | 22 | 345 | 0.0 | 0.0 | 0.00 | 0.00 | 0.00 | 96 | 1017.8 |
| 20260903114520 | 22 | 344 | 0.0 | 0.0 | 0.00 | 0.00 | 0.00 | 96 | 1017.8 |
| 20260903114013 | 22 | 344 | 0.0 | 0.0 | 0.00 | 0.00 | 0.00 | 96 | 1017.7 |
| 20260903113507 | 22 | 344 | 0.0 | 0.0 | 0.00 | 0.00 | 0.00 | 96 | 1017.7 |
| 20260903113019 | 22 | 344 | 0.0 | 0.0 | 0.00 | 0.00 | 0.00 | 96 | 1017.7 |
| 20260903112517 | 22 | 345 | 0.0 | 0.0 | 0.00 | 0.00 | 0.00 | 96 | 1017.5 |
| 20260903112009 | 22 | 345 | 0.0 | 0.0 | 0.00 | 0.00 | 0.00 | 96 | 1017.5 |
| 20260903111523 | 22 | 344 | 0.0 | 0.0 | 0.00 | 0.00 | 0.00 | 96 | 1017.6 |
| 20260903111017 | 22 | 345 | 0.0 | 0.0 | 0.00 | 0.00 | 0.00 | 96 | 1017.5 |
| 20260903110510 | 22 | 344 | 0.0 | 0.0 | 0.00 | 0.00 | 0.00 | 96 | 1017.4 |
| 20260903110023 | 22 | 344 | 0.0 | 0.0 | 0.00 | 0.00 | 0.00 | 96 | 1017.4 |
| 20260903105518 | 22 | 344 | 0.0 | 0.0 | 0.00 | 0.00 | 0.00 | 95 | 1017.4 |
| 20260903105012 | 22 | 344 | 0.0 | 0.0 | 0.00 | 0.00 | 0.00 | 96 | 1017.4 |
| 20260903104526 | 22 | 344 | 0.0 | 0.0 | 0.00 | 0.00 | 0.00 | 96 | 1017.3 |
| 20260903104017 | 22 | 344 | 0.0 | 0.0 | 0.00 | 0.00 | 0.00 | 96 | 1017.3 |
| 20260903103511 | 22 | 344 | 0.0 | 0.0 | 0.00 | 0.00 | 0.00 | 96 | 1017.3 |
| 20260903103027 | 22 | 344 | 0.0 | 1.6 | 0.00 | 0.00 | 0.00 | 95 | 1017.4 |
| 20260903102514 | 22 | 345 | 0.0 | 1.6 | 0.00 | 0.00 | 0.00 | 95 | 1017.5 |
| 20260903102014 | 22 | 341 | 0.0 | 0.0 | 0.00 | 0.00 | 0.00 | 95 | 1017.4 |
| 20260903101526 | 22 | 59 | 0.0 | 0.0 | 0.00 | 0.00 | 0.00 | 95 | 1017.3 |
| 20260903101018 | 22 | 59 | 0.0 | 0.0 | 0.00 | 0.00 | 0.00 | 95 | 1017.3 |
| 20260903100510 | 22 | 59 | 0.0 | 0.0 | 0.00 | 0.00 | 0.00 | 95 | 1017.2 |
| 20260903100027 | 22 | 59 | 0.0 | 0.0 | 0.00 | 0.00 | 0.00 | 95 | 1017.2 |
| 20260903095517 | 22 | 59 | 0.0 | 0.0 | 0.00 | 0.00 | 0.00 | 95 | 1017.2 |
| 20260903095019 | 22 | 59 | 0.0 | 0.0 | 0.00 | 0.00 | 0.00 | 95 | 1017.2 |
| 20260903094504 | 22 | 59 | 0.0 | 0.0 | 0.00 | 0.00 | 0.00 | 95 | 1017.2 |
| 20260903094012 | 22 | 59 | 0.0 | 0.0 | 0.00 | 0.00 | 0.00 | 95 | 1017.3 |
| 20260903093512 | 22 | 59 | 0.0 | 0.0 | 0.00 | 0.00 | 0.00 | 95 | 1017.3 |
| 20260903093003 | 22 | 59 | 0.0 | 0.0 | 0.00 | 0.00 | 0.00 | 95 | 1017.3 |
| 20260903092513 | 22 | 59 | 0.0 | 0.0 | 0.00 | 0.00 | 0.00 | 95 | 1017.2 |
| 20260903092015 | 22 | 59 | 0.0 | 0.0 | 0.00 | 0.00 | 0.00 | 95 | 1017.2 |
| 20260903091504 | 22 | 59 | 0.0 | 0.0 | 0.00 | 0.00 | 0.00 | 95 | 1017.1 |
| 20260903091007 | 22 | 59 | 0.0 | 0.0 | 0.00 | 0.00 | 0.00 | 95 | 1017.0 |
| 20260903090515 | 22 | 59 | 0.0 | 0.0 | 0.00 | 0.00 | 0.00 | 95 | 1016.9 |
| 20260903090005 | 22 | 59 | 0.0 | 0.0 | 0.00 | 0.00 | 0.00 | 95 | 1016.8 |
| 20260903085509 | 22 | 59 | 0.0 | 0.0 | 0.00 | 0.00 | 0.00 | 95 | 1016.8 |
| 20260903085011 | 23 | 59 | 0.0 | 0.0 | 0.00 | 0.00 | 0.00 | 95 | 1016.7 |
| 20260903084504 | 23 | 59 | 0.0 | 0.0 | 0.00 | 0.00 | 0.00 | 95 | 1016.7 |
| 20260903084010 | 23 | 59 | 0.0 | 0.0 | 0.00 | 0.00 | 0.00 | 95 | 1016.8 |
| 20260903083515 | 23 | 59 | 0.0 | 0.0 | 0.00 | 0.00 | 0.00 | 95 | 1016.8 |
| 20260903083008 | 23 | 59 | 0.0 | 0.0 | 0.00 | 0.00 | 0.00 | 95 | 1016.7 |
| 20260903082509 | 23 | 59 | 0.0 | 0.0 | 0.00 | 0.00 | 0.00 | 95 | 1016.6 |
| 20260903082003 | 23 | 59 | 0.0 | 0.0 | 0.00 | 0.00 | 0.00 | 95 | 1016.8 |
| 20260903081506 | 23 | 59 | 0.0 | 0.0 | 0.00 | 0.00 | 0.00 | 95 | 1016.8 |
| 20260903081014 | 23 | 59 | 0.0 | 0.0 | 0.00 | 0.00 | 0.00 | 95 | 1017.0 |
| 20260903080504 | 23 | 59 | 0.0 | 0.0 | 0.00 | 0.00 | 0.00 | 95 | 1017.1 |
| 20260903080008 | 23 | 59 | 0.0 | 0.0 | 0.00 | 0.00 | 0.00 | 95 | 1017.1 |
| 20260903075513 | 23 | 59 | 0.0 | 0.0 | 0.00 | 0.00 | 0.00 | 95 | 1017.0 |
| 20260903075003 | 23 | 59 | 0.0 | 0.0 | 0.00 | 0.00 | 0.00 | 95 | 1017.0 |
| 20260903074511 | 23 | 59 | 0.0 | 0.0 | 0.00 | 0.00 | 0.00 | 95 | 1017.1 |
| 20260903074010 | 23 | 59 | 0.0 | 0.0 | 0.00 | 0.00 | 0.00 | 95 | 1017.2 |
| 20260903073504 | 23 | 59 | 0.0 | 0.0 | 0.00 | 0.00 | 0.00 | 95 | 1017.0 |
| 20260903073011 | 23 | 59 | 0.0 | 0.0 | 0.00 | 0.00 | 0.00 | 94 | 1016.9 |
| 20260903072513 | 23 | 59 | 0.0 | 0.0 | 0.00 | 0.00 | 0.00 | 94 | 1016.9 |
| 20260903072003 | 23 | 59 | 0.0 | 0.0 | 0.00 | 0.00 | 0.00 | 94 | 1017.0 |
| 20260903071509 | 23 | 59 | 0.0 | 0.0 | 0.00 | 0.00 | 0.00 | 94 | 1017.1 |
| 20260903071016 | 23 | 59 | 0.0 | 0.0 | 0.00 | 0.00 | 0.00 | 94 | 1017.2 |
| 20260903070508 | 23 | 59 | 0.0 | 0.0 | 0.00 | 0.00 | 0.00 | 94 | 1017.2 |
| 20260903070016 | 23 | 59 | 0.0 | 0.0 | 0.00 | 0.00 | 0.00 | 94 | 1017.3 |
| 20260903065512 | 23 | 59 | 0.0 | 0.0 | 0.00 | 0.00 | 0.00 | 94 | 1017.2 |
| 20260903065003 | 23 | 59 | 0.0 | 0.0 | 0.00 | 0.00 | 0.00 | 94 | 1017.1 |
| 20260903064511 | 23 | 59 | 0.0 | 0.0 | 0.00 | 0.00 | 0.00 | 94 | 1017.0 |
| 20260903064011 | 23 | 59 | 0.0 | 0.0 | 0.00 | 0.00 | 0.00 | 94 | 1017.1 |
| 20260903063504 | 23 | 59 | 0.0 | 0.0 | 0.00 | 0.00 | 0.00 | 94 | 1017.2 |
| 20260903063011 | 23 | 59 | 0.0 | 0.0 | 0.00 | 0.00 | 0.00 | 94 | 1017.3 |
| 20260903062514 | 23 | 59 | 0.0 | 0.0 | 0.00 | 0.00 | 0.00 | 94 | 1017.3 |
| 20260903062006 | 23 | 59 | 0.0 | 0.0 | 0.00 | 0.00 | 0.00 | 94 | 1017.3 |
| 20260903061516 | 23 | 59 | 0.0 | 0.0 | 0.00 | 0.00 | 0.00 | 94 | 1017.4 |
| 20260903061015 | 23 | 59 | 0.0 | 0.0 | 0.00 | 0.00 | 0.00 | 94 | 1017.4 |
| 20260903060506 | 23 | 355 | 0.0 | 0.0 | 0.00 | 0.00 | 0.00 | 94 | 1017.2 |
| 20260903060016 | 23 | 355 | 0.0 | 0.0 | 0.00 | 0.00 | 0.00 | 94 | 1017.3 |
| 20260903055516 | 23 | 355 | 0.0 | 0.0 | 0.00 | 0.00 | 0.00 | 94 | 1017.4 |
| 20260903055004 | 23 | 355 | 0.0 | 0.0 | 0.00 | 0.00 | 0.00 | 94 | 1017.5 |
| 20260903054518 | 23 | 355 | 0.0 | 0.0 | 0.00 | 0.00 | 0.00 | 93 | 1017.6 |
| 20260903054014 | 23 | 355 | 0.0 | 0.0 | 0.00 | 0.00 | 0.00 | 93 | 1017.7 |
| 20260903053507 | 23 | 355 | 0.0 | 0.0 | 0.00 | 0.00 | 0.00 | 93 | 1017.8 |
| 20260903053016 | 23 | 355 | 0.0 | 0.0 | 0.00 | 0.00 | 0.00 | 93 | 1017.9 |
| 20260903052516 | 23 | 355 | 0.0 | 0.0 | 0.00 | 0.00 | 0.00 | 93 | 1017.8 |
| 20260903052006 | 23 | 355 | 0.0 | 0.0 | 0.00 | 0.00 | 0.00 | 93 | 1017.7 |
| 20260903051518 | 23 | 355 | 0.0 | 0.0 | 0.00 | 0.00 | 0.00 | 93 | 1017.6 |
| 20260903051014 | 23 | 355 | 0.0 | 0.0 | 0.00 | 0.00 | 0.00 | 93 | 1017.7 |
| 20260903050506 | 23 | 355 | 0.0 | 0.0 | 0.00 | 0.00 | 0.00 | 93 | 1017.7 |
| 20260903050025 | 24 | 355 | 0.0 | 0.0 | 0.00 | 0.00 | 0.00 | 93 | 1017.7 |
| 20260903045516 | 24 | 355 | 0.0 | 0.0 | 0.00 | 0.00 | 0.00 | 93 | 1017.6 |
| 20260903045007 | 24 | 355 | 0.0 | 0.0 | 0.00 | 0.00 | 0.00 | 93 | 1017.6 |
| 20260903044519 | 24 | 355 | 0.0 | 0.0 | 0.00 | 0.00 | 0.00 | 93 | 1017.7 |
| 20260903044015 | 24 | 355 | 0.0 | 0.0 | 0.00 | 0.00 | 0.00 | 93 | 1017.6 |
| 20260903043510 | 24 | 355 | 0.0 | 0.0 | 0.00 | 0.00 | 0.00 | 93 | 1017.7 |
| 20260903043020 | 24 | 355 | 0.0 | 0.0 | 0.00 | 0.00 | 0.00 | 93 | 1017.6 |
| 20260903042516 | 24 | 355 | 0.0 | 0.0 | 0.00 | 0.00 | 0.00 | 93 | 1017.6 |
| 20260903042008 | 24 | 355 | 0.0 | 0.0 | 0.00 | 0.00 | 0.00 | 93 | 1017.5 |
| 20260903041532 | 24 | 355 | 0.0 | 0.0 | 0.00 | 0.00 | 0.00 | 93 | 1017.4 |
| 20260903041017 | 24 | 355 | 0.0 | 0.0 | 0.00 | 0.00 | 0.00 | 93 | 1017.4 |
| 20260903040510 | 24 | 355 | 0.0 | 0.0 | 0.00 | 0.00 | 0.00 | 93 | 1017.5 |
| 20260903040023 | 24 | 355 | 0.0 | 0.0 | 0.00 | 0.00 | 0.00 | 93 | 1017.5 |
| 20260903035519 | 24 | 355 | 0.0 | 0.0 | 0.00 | 0.00 | 0.00 | 93 | 1017.4 |
| 20260903035011 | 24 | 355 | 0.0 | 0.0 | 0.00 | 0.00 | 0.00 | 93 | 1017.4 |
| 20260903034525 | 24 | 116 | 0.0 | 0.0 | 0.00 | 0.00 | 0.00 | 93 | 1017.4 |
| 20260903034017 | 24 | 116 | 0.0 | 0.0 | 0.00 | 0.00 | 0.00 | 93 | 1017.3 |
| 20260903033511 | 24 | 116 | 0.0 | 0.0 | 0.00 | 0.00 | 0.00 | 93 | 1017.2 |
| 20260903033026 | 24 | 116 | 0.0 | 0.0 | 0.00 | 0.00 | 0.00 | 93 | 1017.2 |
| 20260903032518 | 24 | 116 | 0.0 | 0.0 | 0.00 | 0.00 | 0.00 | 92 | 1017.3 |
| 20260903032010 | 25 | 116 | 0.0 | 0.0 | 0.00 | 0.00 | 0.00 | 92 | 1017.2 |
| 20260903031528 | 25 | 116 | 0.0 | 0.0 | 0.00 | 0.00 | 0.00 | 92 | 1017.2 |
| 20260903031015 | 25 | 116 | 0.0 | 0.0 | 0.00 | 0.00 | 0.00 | 92 | 1017.2 |
| 20260903030515 | 25 | 116 | 0.0 | 0.0 | 0.00 | 0.00 | 0.00 | 92 | 1017.3 |
| 20260903030035 | 25 | 116 | 0.0 | 0.0 | 0.00 | 0.00 | 0.00 | 92 | 1017.4 |
| 20260903025521 | 25 | 116 | 0.0 | 0.0 | 0.00 | 0.00 | 0.00 | 92 | 1017.4 |
| 20260903025013 | 25 | 116 | 0.0 | 1.6 | 0.00 | 0.00 | 0.00 | 91 | 1017.4 |
| 20260903024527 | 25 | 116 | 0.0 | 1.6 | 0.00 | 0.00 | 0.00 | 91 | 1017.3 |
| 20260903024013 | 25 | 116 | 0.0 | 0.0 | 0.00 | 0.00 | 0.00 | 91 | 1017.5 |
| 20260903023514 | 25 | 116 | 0.0 | 0.0 | 0.00 | 0.00 | 0.00 | 91 | 1017.5 |
| 20260903023033 | 25 | 116 | 0.0 | 0.0 | 0.00 | 0.00 | 0.00 | 91 | 1017.6 |
| 20260903022508 | 25 | 116 | 0.0 | 0.0 | 0.00 | 0.00 | 0.00 | 91 | 1017.5 |
| 20260903022013 | 25 | 116 | 0.0 | 0.0 | 0.00 | 0.00 | 0.00 | 91 | 1017.6 |
| 20260903021530 | 25 | 116 | 0.0 | 0.0 | 0.00 | 0.00 | 0.00 | 90 | 1017.7 |
| 20260903021014 | 25 | 116 | 0.0 | 0.0 | 0.00 | 0.00 | 0.00 | 90 | 1017.6 |
| 20260903020513 | 25 | 116 | 0.0 | 0.0 | 0.00 | 0.00 | 0.00 | 90 | 1017.6 |
| 20260903020038 | 25 | 116 | 0.0 | 0.0 | 0.00 | 0.00 | 0.00 | 89 | 1017.7 |
| 20260903015508 | 26 | 116 | 0.0 | 0.0 | 0.00 | 0.00 | 0.00 | 89 | 1017.7 |
| 20260903015015 | 26 | 116 | 0.0 | 0.0 | 0.00 | 0.00 | 0.00 | 89 | 1017.7 |
| 20260903014543 | 26 | 116 | 0.0 | 0.0 | 0.00 | 0.00 | 0.00 | 89 | 1017.8 |
| 20260903014009 | 26 | 116 | 0.0 | 0.0 | 0.00 | 0.00 | 0.00 | 89 | 1017.7 |
| 20260903013515 | 26 | 116 | 0.0 | 0.0 | 0.00 | 0.00 | 0.00 | 88 | 1017.8 |
| 20260903013030 | 26 | 116 | 0.0 | 0.0 | 0.00 | 0.00 | 0.00 | 88 | 1017.8 |
| 20260903012522 | 26 | 116 | 0.0 | 0.0 | 0.00 | 0.00 | 0.00 | 88 | 1017.8 |
| 20260903012017 | 26 | 116 | 0.0 | 0.0 | 0.00 | 0.00 | 0.00 | 87 | 1017.8 |
| 20260903011538 | 26 | 116 | 0.0 | 0.0 | 0.00 | 0.00 | 0.00 | 87 | 1017.7 |
| 20260903011009 | 26 | 116 | 0.0 | 1.6 | 0.00 | 0.00 | 0.00 | 87 | 1017.7 |
| 20260903010515 | 26 | 116 | 0.0 | 1.6 | 0.00 | 0.00 | 0.00 | 87 | 1017.5 |
| 20260903010039 | 26 | 116 | 0.0 | 1.6 | 0.00 | 0.00 | 0.00 | 86 | 1017.5 |
| 20260903005511 | 26 | 116 | 0.0 | 1.6 | 0.00 | 0.00 | 0.00 | 86 | 1017.4 |
| 20260903005019 | 26 | 116 | 0.0 | 1.6 | 0.00 | 0.00 | 0.00 | 85 | 1017.2 |
| 20260903004506 | 27 | 116 | 0.0 | 1.6 | 0.00 | 0.00 | 0.00 | 85 | 1017.3 |
| 20260903004003 | 27 | 116 | 0.0 | 1.6 | 0.00 | 0.00 | 0.00 | 85 | 1017.3 |
| 20260903003503 | 27 | 116 | 0.0 | 3.2 | 0.00 | 0.00 | 0.00 | 84 | 1017.3 |
| 20260903003004 | 27 | 116 | 0.0 | 3.2 | 0.00 | 0.00 | 0.00 | 84 | 1017.2 |
| 20260903002505 | 27 | 171 | 0.0 | 1.6 | 0.00 | 0.00 | 0.00 | 84 | 1017.2 |
| 20260903002005 | 27 | 171 | 0.0 | 1.6 | 0.00 | 0.00 | 0.00 | 84 | 1017.2 |
| 20260903001505 | 27 | 171 | 0.0 | 0.0 | 0.00 | 0.00 | 0.00 | 83 | 1017.4 |
| 20260903001005 | 27 | 171 | 0.0 | 4.8 | 0.00 | 0.00 | 0.00 | 83 | 1017.3 |
| 20260903000503 | 27 | 171 | 0.0 | 4.8 | 0.00 | 0.00 | 0.00 | 82 | 1017.2 |
| 20260903000003 | 27 | 178 | 0.0 | 4.8 | 0.00 | 0.00 | 0.00 | 82 | 1017.1 |
| 20260902235504 | 27 | 179 | 0.0 | 4.8 | 0.00 | 0.00 | 0.00 | 82 | 1017.2 |
| 20260902235003 | 27 | 179 | 0.0 | 6.4 | 0.00 | 0.00 | 0.00 | 81 | 1017.3 |
| 20260902234504 | 27 | 109 | 1.6 | 6.4 | 0.00 | 0.00 | 0.00 | 81 | 1017.1 |
| 20260902234003 | 28 | 202 | 1.6 | 6.4 | 0.00 | 0.00 | 0.00 | 81 | 1017.0 |
| 20260902233503 | 28 | 171 | 0.0 | 12.9 | 0.00 | 0.00 | 0.00 | 81 | 1016.9 |
| 20260902233004 | 28 | 130 | 1.6 | 12.9 | 0.00 | 0.00 | 0.00 | 80 | 1017.0 |
| 20260902232504 | 28 | 186 | 0.0 | 14.5 | 0.00 | 0.00 | 0.00 | 80 | 1017.1 |
| 20260902232003 | 28 | 190 | 1.6 | 14.5 | 0.00 | 0.00 | 0.00 | 80 | 1017.2 |
| 20260902231505 | 28 | 161 | 0.0 | 11.3 | 0.00 | 0.00 | 0.00 | 80 | 1017.4 |
| 20260902231006 | 28 | 145 | 1.6 | 9.7 | 0.00 | 0.00 | 0.00 | 79 | 1017.4 |
| 20260902230504 | 28 | 343 | 0.0 | 9.7 | 0.00 | 0.00 | 0.00 | 79 | 1017.7 |
| 20260902230002 | 28 | 196 | 0.0 | 9.7 | 0.00 | 0.00 | 0.00 | 79 | 1017.6 |
| 20260902225503 | 28 | 103 | 4.8 | 12.9 | 0.00 | 0.00 | 0.00 | 79 | 1017.3 |
| 20260902225002 | 28 | 169 | 1.6 | 14.5 | 0.00 | 0.00 | 0.00 | 78 | 1017.2 |
| 20260902224504 | 28 | 178 | 4.8 | 14.5 | 0.00 | 0.00 | 0.00 | 78 | 1017.3 |
| 20260902224003 | 28 | 170 | 4.8 | 12.9 | 0.00 | 0.00 | 0.00 | 78 | 1017.7 |
| 20260902223503 | 28 | 160 | 1.6 | 6.4 | 0.00 | 0.00 | 0.00 | 78 | 1018.0 |
| 20260902223005 | 28 | 180 | 1.6 | 6.4 | 0.00 | 0.00 | 0.00 | 78 | 1017.8 |
| 20260902222507 | 29 | 164 | 0.0 | 9.7 | 0.00 | 0.00 | 0.00 | 77 | 1017.7 |
| 20260902222004 | 29 | 128 | 0.0 | 12.9 | 0.00 | 0.00 | 0.00 | 77 | 1017.8 |
| 20260902221515 | 29 | 160 | 1.6 | 12.9 | 0.00 | 0.00 | 0.00 | 76 | 1017.9 |
| 20260902221004 | 29 | 109 | 3.2 | 11.3 | 0.00 | 0.00 | 0.00 | 76 | 1018.0 |
| 20260902220505 | 29 | 186 | 4.8 | 11.3 | 0.00 | 0.00 | 0.00 | 75 | 1018.1 |
| 20260902220006 | 29 | 121 | 3.2 | 11.3 | 0.00 | 0.00 | 0.00 | 75 | 1017.8 |
| 20260902215503 | 29 | 76 | 4.8 | 12.9 | 0.00 | 0.00 | 0.00 | 74 | 1017.9 |
| 20260902215008 | 30 | 180 | 3.2 | 17.7 | 0.00 | 0.00 | 0.00 | 73 | 1017.8 |
| 20260902214516 | 30 | 132 | 4.8 | 17.7 | 0.00 | 0.00 | 0.00 | 71 | 1017.9 |
| 20260902214002 | 30 | 233 | 6.4 | 16.1 | 0.00 | 0.00 | 0.00 | 70 | 1017.6 |
| 20260902213502 | 31 | 149 | 6.4 | 16.1 | 0.00 | 0.00 | 0.00 | 68 | 1017.7 |
| 20260902213006 | 31 | 185 | 4.8 | 12.9 | 0.00 | 0.00 | 0.00 | 64 | 1017.7 |
| 20260902212503 | 31 | 117 | 4.8 | 22.5 | 0.00 | 0.00 | 0.00 | 63 | 1017.6 |
| 20260902212005 | 31 | 122 | 1.6 | 22.5 | 0.00 | 0.00 | 0.00 | 66 | 1017.6 |
| 20260902211504 | 31 | 158 | 4.8 | 19.3 | 0.00 | 0.00 | 0.00 | 65 | 1017.7 |
| 20260902211005 | 32 | 119 | 4.8 | 24.1 | 0.00 | 0.00 | 0.00 | 62 | 1017.6 |
| 20260902210505 | 33 | 198 | 8.0 | 24.1 | 0.00 | 0.00 | 0.00 | 61 | 1017.4 |
| 20260902210009 | 34 | 198 | 8.0 | 17.7 | 0.00 | 0.00 | 0.00 | 60 | 1017.3 |
| 20260902205504 | 34 | 166 | 3.2 | 11.3 | 0.00 | 0.00 | 0.00 | 60 | 1017.2 |
| 20260902205005 | 34 | 277 | 1.6 | 8.0 | 0.00 | 0.00 | 0.00 | 59 | 1017.2 |
| 20260902204508 | 34 | 242 | 1.6 | 6.4 | 0.00 | 0.00 | 0.00 | 58 | 1017.1 |
| 20260902204003 | 35 | 315 | 1.6 | 8.0 | 0.00 | 0.00 | 0.00 | 57 | 1017.1 |
| 20260902203506 | 35 | 355 | 1.6 | 8.0 | 0.00 | 0.00 | 0.00 | 56 | 1017.1 |
| 20260902203008 | 35 | 296 | 1.6 | 8.0 | 0.00 | 0.00 | 0.00 | 56 | 1017.1 |
| 20260902202506 | 35 | 46 | 1.6 | 9.7 | 0.00 | 0.00 | 0.00 | 56 | 1017.1 |
| 20260902202006 | 35 | 69 | 1.6 | 12.9 | 0.00 | 0.00 | 0.00 | 55 | 1017.2 |
| 20260902201509 | 35 | 128 | 4.8 | 12.9 | 0.00 | 0.00 | 0.00 | 55 | 1017.3 |
| 20260902201004 | 35 | 147 | 3.2 | 6.4 | 0.00 | 0.00 | 0.00 | 56 | 1017.3 |
| 20260902200511 | 35 | 343 | 3.2 | 6.4 | 0.00 | 0.00 | 0.00 | 53 | 1017.3 |
| 20260902200011 | 35 | 306 | 0.0 | 6.4 | 0.00 | 0.00 | 0.00 | 54 | 1017.4 |
| 20260902195506 | 35 | 294 | 0.0 | 6.4 | 0.00 | 0.00 | 0.00 | 53 | 1017.4 |
| 20260902195007 | 35 | 204 | 0.0 | 6.4 | 0.00 | 0.00 | 0.00 | 52 | 1017.3 |
| 20260902194526 | 35 | 302 | 0.0 | 6.4 | 0.00 | 0.00 | 0.00 | 54 | 1017.2 |
| 20260902194004 | 35 | 312 | 1.6 | 6.4 | 0.00 | 0.00 | 0.00 | 53 | 1017.2 |
| 20260902193504 | 35 | 345 | 1.6 | 8.0 | 0.00 | 0.00 | 0.00 | 55 | 1017.1 |
| 20260902193010 | 35 | 195 | 3.2 | 8.0 | 0.00 | 0.00 | 0.00 | 55 | 1017.1 |
| 20260902192508 | 35 | 109 | 1.6 | 8.0 | 0.00 | 0.00 | 0.00 | 57 | 1017.2 |
| 20260902192008 | 35 | 288 | 1.6 | 8.0 | 0.00 | 0.00 | 0.00 | 54 | 1017.3 |
| 20260902191512 | 35 | 42 | 3.2 | 8.0 | 0.00 | 0.00 | 0.00 | 53 | 1017.3 |
| 20260902191007 | 35 | 42 | 1.6 | 6.4 | 0.00 | 0.00 | 0.00 | 53 | 1017.3 |
| 20260902190507 | 35 | 107 | 1.6 | 4.8 | 0.00 | 0.00 | 0.00 | 56 | 1017.5 |
| 20260902190010 | 35 | 349 | 0.0 | 8.0 | 0.00 | 0.00 | 0.00 | 56 | 1017.5 |
| 20260902185508 | 35 | 325 | 0.0 | 8.0 | 0.00 | 0.00 | 0.00 | 56 | 1017.6 |
| 20260902185011 | 35 | 286 | 1.6 | 8.0 | 0.00 | 0.00 | 0.00 | 61 | 1017.7 |
| 20260902184509 | 34 | 325 | 1.6 | 4.8 | 0.00 | 0.00 | 0.00 | 58 | 1017.7 |
| 20260902184007 | 34 | 347 | 0.0 | 6.4 | 0.00 | 0.00 | 0.00 | 57 | 1017.7 |
| 20260902183509 | 35 | 269 | 0.0 | 9.7 | 0.00 | 0.00 | 0.00 | 57 | 1017.8 |
| 20260902183012 | 35 | 319 | 0.0 | 9.7 | 0.00 | 0.00 | 0.00 | 57 | 1017.8 |
| 20260902182508 | 35 | 321 | 0.0 | 8.0 | 0.00 | 0.00 | 0.00 | 57 | 1017.8 |
| 20260902182008 | 34 | 337 | 1.6 | 6.4 | 0.00 | 0.00 | 0.00 | 58 | 1017.9 |
| 20260902181514 | 34 | 59 | 0.0 | 6.4 | 0.00 | 0.00 | 0.00 | 58 | 1017.9 |
| 20260902181009 | 34 | 329 | 1.6 | 6.4 | 0.00 | 0.00 | 0.00 | 59 | 1018.0 |
| 20260902180509 | 34 | 5 | 1.6 | 6.4 | 0.00 | 0.00 | 0.00 | 56 | 1018.0 |
| 20260902180014 | 35 | 352 | 1.6 | 9.7 | 0.00 | 0.00 | 0.00 | 56 | 1018.0 |
| 20260902175512 | 35 | 324 | 1.6 | 9.7 | 0.00 | 0.00 | 0.00 | 57 | 1018.0 |
| 20260902175008 | 34 | 304 | 1.6 | 9.7 | 0.00 | 0.00 | 0.00 | 59 | 1018.0 |
| 20260902174515 | 34 | 15 | 1.6 | 8.0 | 0.00 | 0.00 | 0.00 | 57 | 1018.0 |
| 20260902174010 | 35 | 38 | 1.6 | 6.4 | 0.00 | 0.00 | 0.00 | 55 | 1018.0 |
| 20260902173512 | 35 | 219 | 0.0 | 6.4 | 0.00 | 0.00 | 0.00 | 59 | 1018.0 |
| 20260902173023 | 35 | 122 | 1.6 | 4.8 | 0.00 | 0.00 | 0.00 | 58 | 1017.9 |
| 20260902172509 | 34 | 293 | 1.6 | 8.0 | 0.00 | 0.00 | 0.00 | 58 | 1018.0 |
| 20260902172011 | 34 | 324 | 3.2 | 8.0 | 0.00 | 0.00 | 0.00 | 58 | 1018.0 |
| 20260902171518 | 34 | 352 | 4.8 | 8.0 | 0.00 | 0.00 | 0.00 | 56 | 1018.0 |
| 20260902171014 | 33 | 327 | 1.6 | 6.4 | 0.00 | 0.00 | 0.00 | 59 | 1018.0 |
| 20260902170510 | 33 | 132 | 1.6 | 6.4 | 0.00 | 0.00 | 0.00 | 58 | 1018.1 |
| 20260902170019 | 34 | 321 | 1.6 | 6.4 | 0.00 | 0.00 | 0.00 | 60 | 1018.0 |
| 20260902165510 | 34 | 51 | 1.6 | 6.4 | 0.00 | 0.00 | 0.00 | 58 | 1018.0 |
| 20260902165014 | 33 | 15 | 1.6 | 6.4 | 0.00 | 0.00 | 0.00 | 58 | 1018.1 |
| 20260902164518 | 34 | 320 | 1.6 | 6.4 | 0.00 | 0.00 | 0.00 | 58 | 1018.1 |
| 20260902164011 | 33 | 127 | 1.6 | 6.4 | 0.00 | 0.00 | 0.00 | 62 | 1018.1 |
| 20260902163511 | 33 | 350 | 1.6 | 6.4 | 0.00 | 0.00 | 0.00 | 58 | 1018.1 |
| 20260902163018 | 33 | 193 | 0.0 | 8.0 | 0.00 | 0.00 | 0.00 | 66 | 1018.1 |
| 20260902162509 | 33 | 30 | 1.6 | 8.0 | 0.00 | 0.00 | 0.00 | 61 | 1018.1 |
| 20260902162013 | 33 | 115 | 0.0 | 6.4 | 0.00 | 0.00 | 0.00 | 60 | 1018.2 |
| 20260902161520 | 33 | 30 | 3.2 | 6.4 | 0.00 | 0.00 | 0.00 | 58 | 1018.2 |
| 20260902161017 | 33 | 34 | 1.6 | 8.0 | 0.00 | 0.00 | 0.00 | 60 | 1018.2 |
| 20260902160512 | 33 | 158 | 1.6 | 8.0 | 0.00 | 0.00 | 0.00 | 62 | 1018.3 |
| 20260902160022 | 33 | 42 | 0.0 | 8.0 | 0.00 | 0.00 | 0.00 | 61 | 1018.3 |
| 20260902155510 | 33 | 24 | 0.0 | 8.0 | 0.00 | 0.00 | 0.00 | 60 | 1018.3 |
| 20260902155014 | 32 | 349 | 3.2 | 8.0 | 0.00 | 0.00 | 0.00 | 60 | 1018.3 |
| 20260902154515 | 32 | 355 | 0.0 | 4.8 | 0.00 | 0.00 | 0.00 | 62 | 1018.3 |
| 20260902154005 | 33 | 230 | 0.0 | 6.4 | 0.00 | 0.00 | 0.00 | 63 | 1018.4 |
| 20260902153504 | 32 | 27 | 1.6 | 6.4 | 0.00 | 0.00 | 0.00 | 64 | 1018.3 |
| 20260902153016 | 33 | 192 | 0.0 | 4.8 | 0.00 | 0.00 | 0.00 | 65 | 1018.3 |
| 20260902152505 | 32 | 305 | 0.0 | 11.3 | 0.00 | 0.00 | 0.00 | 63 | 1018.4 |
| 20260902152007 | 32 | 329 | 1.6 | 11.3 | 0.00 | 0.00 | 0.00 | 63 | 1018.5 |
| 20260902151526 | 32 | 117 | 1.6 | 8.0 | 0.00 | 0.00 | 0.00 | 69 | 1018.5 |
| 20260902151005 | 32 | 327 | 1.6 | 8.0 | 0.00 | 0.00 | 0.00 | 62 | 1018.6 |
| 20260902150508 | 31 | 331 | 0.0 | 8.0 | 0.00 | 0.00 | 0.00 | 66 | 1018.7 |
| 20260902150022 | 31 | 22 | 1.6 | 4.8 | 0.00 | 0.00 | 0.00 | 63 | 1018.6 |
| 20260902145503 | 31 | 209 | 1.6 | 6.4 | 0.00 | 0.00 | 0.00 | 67 | 1018.6 |
| 20260902145008 | 31 | 315 | 1.6 | 6.4 | 0.00 | 0.00 | 0.00 | 67 | 1018.5 |
| 20260902144523 | 31 | 319 | 1.6 | 4.8 | 0.00 | 0.00 | 0.00 | 67 | 1018.4 |
| 20260902144004 | 31 | 321 | 1.6 | 4.8 | 0.00 | 0.00 | 0.00 | 67 | 1018.4 |
| 20260902143508 | 30 | 318 | 1.6 | 4.8 | 0.00 | 0.00 | 0.00 | 69 | 1018.4 |
| 20260902143026 | 30 | 330 | 1.6 | 6.4 | 0.00 | 0.00 | 0.00 | 68 | 1018.5 |
| 20260902142506 | 30 | 49 | 0.0 | 6.4 | 0.00 | 0.00 | 0.00 | 69 | 1018.4 |